Wakefield, VA

9:32 PM EST on December 09, 2019 (GMT -0500)
Wakefield Municipal

Weather History for KAKQ - October, 2019

Change the Weather History Date:

Monday, October 28, 2019

  Actual Average (WUND) Record (WUND)
Temperature  
Mean Temperature 61 °F -  
Max Temperature 72 °F - - (-1)
Min Temperature 51 °F - - (-1)
Degree Days  
Heating Degree Days 4    
Growing Degree Days 11 (Base 50)    
Moisture  
Dew Point 52 °F    
Average Humidity 79    
Maximum Humidity 93    
Minimum Humidity 51    
Precipitation  
Precipitation 0.00 in - - ()
Sea Level Pressure  
Sea Level Pressure 30.13 in    
Wind  
Wind Speed 1 mph (ENE)    
Max Wind Speed 7 mph    
Max Gust Speed -    
Visibility 10 miles    
Events      
Averages and records for this station are not official NWS values.
T = Trace of Precipitation, MM = Missing Value Source: NWS Daily Summary

Daily Weather History Graph

Daily Weather History Graph

Search for Another Location

Airport or City:

Astronomy

Oct. 28, 2019 Rise Set
Actual Time 7:27 AM EDT 6:15 PM EDT
Civil Twilight 7:01 AM EDT 6:41 PM EDT
Nautical Twilight 6:30 AM EDT 7:12 PM EDT
Astronomical Twilight 6:00 AM EDT 7:42 PM EDT
Moon 7:47 AM EDT (10/28) 6:59 PM EDT (10/28)
Length of Visible Light 11h 40m
Length of Day
10h 47m
New Moon, 0% of the Moon is Illuminated
Oct 28
New Moon
Nov 4
First Quarter
Nov 12
Full
Nov 19
Last Quarter
Nov 26
New

Hourly Weather History & Observations

Time (EDT) Temp. Dew Point Humidity Pressure Visibility Wind Dir Wind Speed Gust Speed Precip Events Conditions
12:54 AM 60.1 °F 57.0 °F 90% 29.99 in 10.0 mi Calm Calm - N/A   Clear
1:54 AM 57.0 °F 55.0 °F 93% 29.99 in 10.0 mi Calm Calm - N/A   Clear
2:54 AM 55.9 °F 53.1 °F 90% 30.00 in 7.0 mi Calm Calm - N/A   Clear
3:54 AM 54.0 °F 51.1 °F 90% 30.02 in 10.0 mi Calm Calm - N/A   Clear
4:54 AM 53.1 °F 51.1 °F 93% 30.04 in 10.0 mi Calm Calm - N/A   Clear
5:54 AM 52.0 °F 50.0 °F 93% 30.06 in 10.0 mi Calm Calm - N/A   Clear
6:54 AM 51.1 °F 48.9 °F 92% 30.09 in 10.0 mi Calm Calm - N/A   Clear
7:54 AM 51.1 °F 48.9 °F 92% 30.13 in 10.0 mi Calm Calm - N/A   Clear
8:54 AM 59.0 °F 52.0 °F 78% 30.15 in 10.0 mi Calm Calm - N/A   Clear
9:54 AM 63.0 °F 53.1 °F 70% 30.17 in 10.0 mi Variable 4.6 mph - N/A   Clear
10:54 AM 64.9 °F 52.0 °F 63% 30.17 in 10.0 mi NNE 5.8 mph - N/A   Clear
11:54 AM 68.0 °F 52.0 °F 56% 30.18 in 10.0 mi NNE 6.9 mph - N/A   Clear
12:54 PM 69.1 °F 52.0 °F 54% 30.17 in 10.0 mi East 5.8 mph - N/A   Clear
1:54 PM 70.0 °F 51.1 °F 51% 30.15 in 10.0 mi Variable 4.6 mph - N/A   Clear
2:54 PM 71.1 °F 52.0 °F 51% 30.16 in 10.0 mi Variable 4.6 mph - N/A   Clear
3:54 PM 71.1 °F 52.0 °F 51% 30.15 in 10.0 mi East 6.9 mph - N/A   Clear
4:54 PM 68.0 °F 53.1 °F 59% 30.16 in 10.0 mi East 5.8 mph - N/A   Clear
5:54 PM 64.0 °F 53.1 °F 67% 30.17 in 10.0 mi East 3.5 mph - N/A   Clear
6:54 PM 57.9 °F 53.1 °F 84% 30.18 in 10.0 mi Calm Calm - N/A   Clear
7:54 PM 55.0 °F 52.0 °F 89% 30.18 in 10.0 mi Calm Calm - N/A   Clear
8:28 PM 55.9 °F 53.1 °F 90% 30.19 in 10.0 mi Calm Calm - N/A   Mostly Cloudy
8:54 PM 55.0 °F 53.1 °F 93% 30.19 in 10.0 mi Calm Calm - N/A   Mostly Cloudy
9:19 PM 54.0 °F 52.0 °F 93% 30.19 in 10.0 mi Calm Calm - N/A   Scattered Clouds
9:54 PM 53.1 °F 51.1 °F 93% 30.20 in 10.0 mi Calm Calm - N/A   Clear
10:54 PM 52.0 °F 50.0 °F 93% 30.21 in 10.0 mi Calm Calm - N/A   Clear
11:54 PM 52.0 °F 48.9 °F 89% 30.21 in 10.0 mi Calm Calm - N/A   Scattered Clouds